Regional Weather Roundup
Issued by NWS

Home | Current Version | Previous Version | Text Only | Print | Product List | Glossary Off
Versions: 1 2 3 4 5 6 7 8 9 10 11 12 13 14 15 16 17 18 19 20 21 22 23 24 25 26 27

000
ASUS45 KTFX 031910
RWRMT
MONTANA REGIONAL WEATHER ROUNDUP
NATIONAL WEATHER SERVICE GREAT FALLS MT
1200 PM MST SAT DEC 03 2016

NOTE: "FAIR" INDICATES FEW OR NO CLOUDS BELOW 12000 FEET WITH NO
SIGNIFICANT WEATHER AND/OR OBSTRUCTIONS TO VISIBILITY.

MTZ001>007-043-032000-
WEST OF THE DIVIDE

CITY           SKY/WX    TMP DP  RH WIND       PRES   REMARKS
KALISPELL      MOSUNNY   38  30  73 S9        30.01S WCI  31
MISSOULA       CLOUDY    34  31  88 CALM      30.11R
BUTTE          CLOUDY    34  20  56 W10       29.98F WCI  26
MULLAN PASS    LGT SNOW  24  22  91 VRB7      30.01F FOG     WCI  16
ANACONDA         N/A     36  19  51 SW13G24   29.98F WCI  27
DEER LODGE       N/A     39  19  45 W16       30.00F WCI  30
EUREKA           N/A     43  25  49 S3        30.01R
HAMILTON         N/A     41  23  48 CALM      30.09S
LIBBY            N/A     37  32  81 CALM      30.03F
PLAINS           N/A     36  32  85 CALM      30.08S
RONAN            N/A     37  31  79 CALM      30.10S
$$

MTZ008-052>055-032000-
SOUTHWEST MONTANA

CITY           SKY/WX    TMP DP  RH WIND       PRES   REMARKS
BOZEMAN        CLOUDY    38  21  50 CALM      29.99F
DILLON         PTSUNNY   37  18  46 SW17      30.02F WCI  27
W YELLOWSTONE  LGT SNOW  19  16  86 SW14G24   30.07F WCI   6
ENNIS          CLOUDY    32  18  55 S17G24    30.07F WCI  21
THREE FORKS      N/A     41  41 100 SW7       29.98S
TWIN BRIDGES     N/A     39  16  39 S21       30.00F WCI  29
$$

MTZ009-010-012-014-046-048-049-054-032000-
EAST SLOPES AND CENTRAL MONTANA

CITY           SKY/WX    TMP DP  RH WIND       PRES   REMARKS
CUT BANK       MOSUNNY   40  20  44 W26G36    29.86R
GREAT FALLS    CLOUDY    42  24  49 W17       29.88R
MALMSTROM AFB  PTSUNNY   42  24  50 W17G23    29.89R
HELENA         CLOUDY    44  21  40 W16G26    29.96S
AUGUSTA          N/A     40  14  35 W23G32    29.88S
BOWMANS CRNR     N/A     38  23  56 SW23G29   29.88R WCI  27
CHOTEAU          N/A     41  16  36 W25G36    29.89R
FAIRFIELD        N/A     42  15  33 W33G43    29.86R
POWER          CLOUDY    41  19  40 W28G35    29.87R
RAYNESFORD     PTSUNNY   38  24  55 W23G36    29.87R WCI  28
ULM              N/A     40  25  54 W18G36    29.90R
$$

MTZ011-013-016-021-045-047-050-051-032000-
NORTH CENTRAL MONTANA

CITY           SKY/WX    TMP DP  RH WIND       PRES   REMARKS
HAVRE          MOSUNNY   39  28  64 W13       29.81S WCI  31
LEWISTOWN      PTSUNNY   38  21  50 W17G29    29.84S WCI  28
N BAR RANCH      N/A     41  18  38 NW30G38   29.83R
CHINOOK          N/A     39  27  60 W17G23    29.80R WCI  30
DENTON         PTSUNNY   43  23  45 W35G46    29.81R
GEYSER           N/A     40  22  47 W30G40    29.85S
GRASS RANGE      N/A     42  18  37 W29G46    29.79S
JUDITH GAP       N/A     37  21  52 W24G37    29.85S WCI  26
ROY            PTSUNNY   42  21  43 MISG      29.79F
STANFORD         N/A     41  16  35 W26G35    29.84F
$$

MTZ017>020-022>027-061-062-032000-
NORTHEAST MONTANA

CITY           SKY/WX    TMP DP  RH WIND       PRES   REMARKS
GLASGOW        CLOUDY    40  27  59 W16       29.73F
JORDAN           N/A     46  22  38 W20G36    29.77F
SIDNEY         CLOUDY    30  25  81 S12       29.79F WCI  20
WOLF POINT     CLOUDY    40  28  62 W15       29.75F
PLENTYWOOD       N/A     30  30 100 S9        29.72F WCI  22
POPLAR           N/A     37  27  65 SW8       29.75F WCI  31
SCOBEY           N/A     33  27  79 S8        29.70F WCI  26
$$

MTZ028>42-056>058-032000-
SOUTHCENTRAL AND SOUTHEAST MONTANA

CITY           SKY/WX    TMP DP  RH WIND       PRES   REMARKS
BAKER          CLOUDY    34  24  67 W14       29.82F WCI  25
BILLINGS       PTSUNNY   44  18  35 W29G41    29.88F
LIVINGSTON     CLOUDY    37  16  42 SW24G36   29.94F WCI  26
MILES CITY     PTSUNNY   40  25  55 SW13      29.82F
BIG TIMBER     SUNNY     41  16  36 W28G43    29.92F
FORSYTH          N/A     43  21  42 SW14G21   29.83S
HARLOWTON      PTSUNNY   38  21  51 W21G36    29.89R WCI  27
LAUREL           N/A     44  16  32 SW23      29.89F
ROUNDUP          N/A     45  17  32 SW26      29.77F
$$

REGIONAL REPORTS...DAKOTAS

CITY           SKY/WX    TMP DP  RH WIND       PRES   REMARKS
WILLISTON      CLOUDY    30  26  85 S9        29.78F WCI  22
MINOT          SUNNY     28  24  85 S8        29.83F WCI  20
DICKINSON      PTSUNNY   27  20  75 SW9       29.80F WCI  18
BEACH            N/A     32  25  74 SW10      29.82F WCI  24
CROSBY         PTSUNNY   28  27  93 S16       29.76F FOG     WCI  17
TIOGA          PTSUNNY   28  25  86 S12       29.79F WCI  18
WATFORD CITY   PTSUNNY   32  25  74 SW16      29.80F WCI  21
BISMARCK       PTSUNNY   26  24  92 SE9       29.92F WCI  17
GRAND FORKS    CLOUDY    29  22  75 S17       30.09F WCI  17
FARGO          CLOUDY    32  23  69 S18       30.11F WCI  20
BUFFALO SD       N/A     35  27  72 W12       29.78F WCI  27
RAPID CITY     SUNNY     41  18  39 N15       29.87F
$$

REGIONAL REPORTS...WYOMING/IDAHO/WASHINGTON

CITY           SKY/WX    TMP DP  RH WIND       PRES   REMARKS
GILLETTE       CLOUDY    37  21  52 W15       29.90S WCI  28
SHERIDAN       CLOUDY    39  27  62 CALM      29.90F
BUFFALO WY     CLOUDY    39  22  50 N5        29.91S
CODY           SUNNY     37  10  32 W18G28    29.95F WCI  27
YELLOWSTONE LA   N/A     16  13  88 CALM      30.06F
IDAHO FALLS    PTSUNNY   30  20  66 SW13      30.21  WCI  20
SALMON         CLOUDY    30  25  80 NW5       30.14S
BOISE          CLOUDY    40  27  59 CALM      30.29S
SPOKANE        PTSUNNY   39  32  76 SW18      30.12F WCI  30
$$

REGIONAL REPORTS...ALBERTA

CITY           SKY/WX    TMP DP  RH WIND       PRES   REMARKS
EDMONTON       SUNNY     37  23  56 W8        29.69F WCI  31
CALGARY        PTSUNNY   41  12  30 W20G26    29.78S
LETHBRIDGE     MOSUNNY   45  19  36 W24G38    29.82R
MEDICINE HAT   PTSUNNY   39  30  70 W8        29.80R
WATERTON GATE    N/A     32  25  74 SW14        N/A  WCI  22
CARDSTON         N/A     39  18  41 W15G25      N/A  WCI  31
MILK RIVER       N/A     43  19  39 W28G39      N/A
ONEFOUR          N/A     43  21  42 NW28G35     N/A
$$

REGIONAL REPORTS...SASKATCHEWAN

CITY           SKY/WX    TMP DP  RH WIND       PRES   REMARKS
SWIFT CURRENT  LGT SNOW  28  28 100 W14       29.66R WCI  17
REGINA         PTSUNNY   28  28 100 SE12      29.64F WCI  18
SASKATOON      CLOUDY    25  21  86 N8        29.68F WCI  16
VAL MARIE        N/A     37  28  70 NW18G24     N/A  WCI  27
ROCKGLEN         N/A     34  30  86 W15         N/A  WCI  24
ASSINIBOIA       N/A     37  25  60 W13         N/A  WCI  29
$$




USA.gov is the U.S. government's official web portal to all federal, state and local government web resources and services.